�������l�o���
Date,Time,MP-1(��Sv/h),MP-2(��Sv/h),MP-3(��Sv/h),MP-4(��Sv/h),MP-5(��Sv/h),MP-6(��Sv/h),MP-7(��Sv/h),MP-8(��Sv/h),����,����(m/s),���J
2015/03/02,00:00,1.827,3.235,3.498,3.208,3.178,1.073,1.733,1.947,�k��,14.3,��
2015/03/02,00:10,1.828,3.248,3.510,3.217,3.192,1.072,1.732,1.948,�k��,11.5,��
2015/03/02,00:20,1.835,3.257,3.517,3.227,3.203,1.072,1.738,1.950,�k��,12.4,��
2015/03/02,00:30,1.840,3.265,3.520,3.233,3.215,1.075,1.738,1.952,�k��,11.8,��
2015/03/02,00:40,1.840,3.273,3.525,3.238,3.225,1.073,1.742,1.955,�k��,11.3,��
2015/03/02,00:50,1.842,3.277,3.535,3.242,3.233,1.075,1.740,1.952,�k�k��,9.3,��
2015/03/02,01:00,1.847,3.278,3.542,3.247,3.243,1.077,1.745,1.952,�k��,10.7,��
2015/03/02,01:10,1.850,3.285,3.543,3.248,3.243,1.075,1.743,1.955,�k��,9.3,��
2015/03/02,01:20,1.852,3.285,3.548,3.255,3.250,1.080,1.745,1.955,�k��,9.9,��
2015/03/02,01:30,1.852,3.287,3.550,3.258,3.257,1.077,1.748,1.957,�k��,8.8,��
2015/03/02,01:40,1.848,3.293,3.562,3.262,3.260,1.078,1.748,1.958,�k��,9.1,��
2015/03/02,01:50,1.852,3.295,3.565,3.263,3.270,1.078,1.750,1.957,�k�k��,7.7,��
2015/03/02,02:00,1.852,3.298,3.572,3.267,3.273,1.080,1.755,1.957,�k�k��,8.2,��
2015/03/02,02:10,1.852,3.305,3.572,3.267,3.273,1.080,1.753,1.958,�k�k��,6.4,��
2015/03/02,02:20,1.855,3.307,3.572,3.270,3.278,1.080,1.757,1.960,�k��,8.5,��
2015/03/02,02:30,1.857,3.310,3.578,3.272,3.290,1.080,1.758,1.958,�k��,6.3,��
2015/03/02,02:40,1.857,3.312,3.583,3.273,3.283,1.078,1.758,1.962,�k��,9.3,��
2015/03/02,02:50,1.857,3.313,3.582,3.275,3.295,1.082,1.757,1.963,�k��,10.2,��
2015/03/02,03:00,1.858,3.313,3.587,3.278,3.297,1.082,1.758,1.960,�k��,12.4,��
2015/03/02,03:10,1.858,3.323,3.590,3.277,3.302,1.080,1.762,1.962,���k��,11.3,��
2015/03/02,03:20,1.857,3.323,3.595,3.282,3.303,1.077,1.762,1.965,�k��,13.0,��
2015/03/02,03:30,1.858,3.327,3.592,3.282,3.310,1.082,1.758,1.962,�k��,13.0,��
2015/03/02,03:40,1.860,3.328,3.595,3.282,3.310,1.080,1.762,1.963,�k��,9.6,��
2015/03/02,03:50,1.858,3.328,3.602,3.283,3.312,1.080,1.760,1.965,�k�k��,10.4,��
2015/03/02,04:00,1.860,3.327,3.603,3.285,3.322,1.080,1.765,1.963,�k�k��,8.6,��
2015/03/02,04:10,1.860,3.330,3.603,3.283,3.323,1.078,1.767,1.965,�k�k��,9.3,��
2015/03/02,04:20,1.860,3.333,3.607,3.285,3.322,1.080,1.765,1.965,�k�k��,10.2,��
2015/03/02,04:30,1.858,3.332,3.610,3.283,3.325,1.082,1.765,1.965,�k�k��,9.3,��
2015/03/02,04:40,1.862,3.332,3.612,3.285,3.328,1.082,1.765,1.965,�k�k��,9.3,��
2015/03/02,04:50,1.862,3.337,3.613,3.283,3.330,1.080,1.765,1.963,�k�k��,9.3,��
2015/03/02,05:00,1.862,3.335,3.617,3.290,3.333,1.080,1.767,1.965,�k�k��,7.1,��
2015/03/02,05:10,1.862,3.335,3.613,3.287,3.337,1.078,1.767,1.962,�k�k��,5.0,��
2015/03/02,05:20,1.863,3.335,3.617,3.287,3.337,1.080,1.768,1.967,�k��,5.1,��
2015/03/02,05:30,1.863,3.333,3.618,3.288,3.340,1.078,1.768,1.967,�k�k��,2.3,��
2015/03/02,05:40,1.862,3.335,3.613,3.288,3.340,1.082,1.765,1.965,�k��,3.0,��
2015/03/02,05:50,1.863,3.340,3.615,3.290,3.340,1.077,1.767,1.968,�k�k��,1.8,��
2015/03/02,06:00,1.863,3.340,3.612,3.287,3.342,1.078,1.770,1.965,��,0.5,��
2015/03/02,06:10,1.862,3.340,3.617,3.288,3.342,1.077,1.768,1.967,�k�k��,0.9,��
2015/03/02,06:20,1.862,3.340,3.620,3.288,3.343,1.075,1.768,1.965,-,CALM,��
2015/03/02,06:30,1.865,3.337,3.617,3.287,3.347,1.077,1.772,1.967,�k��,1.1,��
2015/03/02,06:40,1.862,3.340,3.620,3.288,3.345,1.078,1.768,1.967,�k�k��,2.2,��
2015/03/02,06:50,1.862,3.342,3.618,3.288,3.348,1.075,1.768,1.968,�k��,2.5,��
2015/03/02,07:00,1.862,3.342,3.627,3.290,3.350,1.075,1.770,1.972,�k,1.9,��
2015/03/02,07:10,1.862,3.342,3.625,3.288,3.355,1.070,1.768,1.967,���k��,3.5,��
2015/03/02,07:20,1.863,3.343,3.625,3.290,3.353,1.067,1.772,1.967,���k��,4.6,��
2015/03/02,07:30,1.863,3.347,3.627,3.295,3.358,1.062,1.772,1.968,���k��,4.2,��
2015/03/02,07:40,1.862,3.345,3.630,3.298,3.357,1.062,1.773,1.972,���k��,2.1,��
2015/03/02,07:50,1.862,3.352,3.633,3.298,3.362,1.063,1.772,1.968,�k,1.6,��
2015/03/02,08:00,1.862,3.352,3.633,3.295,3.365,1.058,1.773,1.970,�k��,2.6,��
2015/03/02,08:10,1.865,3.352,3.632,3.295,3.363,1.060,1.773,1.970,�k�k��,1.8,��
2015/03/02,08:20,1.863,3.352,3.635,3.297,3.367,1.058,1.775,1.968,�k�k��,3.3,��
2015/03/02,08:30,1.865,3.355,3.638,3.300,3.368,1.058,1.775,1.972,��,1.4,��
2015/03/02,08:40,1.868,3.355,3.642,3.300,3.370,1.058,1.775,1.968,�k,3.0,��
2015/03/02,08:50,1.872,3.358,3.643,3.302,3.372,1.058,1.775,1.970,�k,3.0,��
2015/03/02,09:00,1.867,3.363,3.645,3.303,3.373,1.057,1.778,1.968,�k,3.6,��
2015/03/02,09:10,1.867,3.367,3.647,3.303,3.380,1.053,1.780,1.972,�k�k��,5.4,��
2015/03/02,09:20,1.868,3.363,3.647,3.303,3.377,1.057,1.778,1.973,�k�k��,3.6,��
2015/03/02,09:30,1.870,3.367,3.650,3.303,3.338,1.060,1.780,1.972,�k�k��,7.2,��
2015/03/02,09:40,1.870,3.368,3.650,3.307,3.338,1.063,1.778,1.973,�k��,5.2,��
2015/03/02,09:50,1.868,3.370,3.653,3.307,3.345,1.067,1.780,1.973,�k��,4.9,��
2015/03/02,10:00,1.872,3.372,3.658,3.310,3.352,1.065,1.775,1.975,��,6.3,��
2015/03/02,10:10,1.868,3.375,3.658,3.313,3.350,1.067,1.778,1.975,���k��,5.7,��
2015/03/02,10:20,1.875,3.372,3.658,3.310,3.347,1.065,1.778,1.975,��,9.7,��
2015/03/02,10:30,1.872,3.362,3.660,3.310,3.357,-,1.778,1.978,���k��,5.2,��
2015/03/02,10:40,1.872,3.375,3.660,3.310,3.362,-,1.778,1.977,�k��,5.4,��
2015/03/02,10:50,1.872,3.382,3.662,3.315,3.367,-,1.777,1.978,���k��,6.8,��
2015/03/02,11:00,1.872,3.387,3.665,3.318,3.360,-,1.782,1.983,���k��,6.9,��
2015/03/02,11:10,1.873,3.387,3.670,3.320,3.395,-,1.782,1.982,��,10.8,��
2015/03/02,11:20,1.880,3.388,3.667,3.322,3.415,-,1.782,1.980,���k��,9.6,��
2015/03/02,11:30,1.875,3.393,3.677,3.323,3.427,-,1.778,1.983,���k��,7.2,��
2015/03/02,11:40,1.878,3.393,3.678,3.323,3.432,-,1.783,1.985,���k��,8.2,��
2015/03/02,11:50,1.875,3.392,3.682,3.325,3.433,-,1.785,1.982,���k��,4.3,��
2015/03/02,12:00,1.877,3.398,3.678,3.327,3.428,-,1.785,1.985,��,7.4,��
2015/03/02,12:10,1.877,3.398,3.687,3.327,3.433,-,1.785,1.983,��,6.6,��
2015/03/02,12:20,1.880,3.400,3.685,3.330,3.438,-,1.783,1.988,���k��,7.8,��
2015/03/02,12:30,1.875,3.400,3.683,3.332,3.437,-,1.783,1.983,��,9.9,��
2015/03/02,12:40,1.877,3.403,3.687,3.332,3.440,1.065,1.785,1.983,��,10.4,��
2015/03/02,12:50,1.878,3.400,3.687,3.335,3.442,1.072,1.787,1.983,��,8.3,��
2015/03/02,13:00,1.875,3.398,3.685,3.332,3.443,1.068,1.787,1.982,�k��,6.6,�L
2015/03/02,13:10,1.877,3.402,3.685,3.333,3.443,1.072,1.787,1.985,�k�k��,6.5,��
2015/03/02,13:20,1.877,3.405,3.688,3.333,3.442,1.070,1.785,1.987,�k,5.8,��
2015/03/02,13:30,1.877,3.407,3.688,3.333,3.442,1.068,1.787,1.983,�k�k��,4.3,��
2015/03/02,13:40,1.873,3.410,3.692,3.335,3.438,1.072,1.785,1.983,�k,4.2,��
2015/03/02,13:50,1.875,3.413,3.690,3.338,3.447,1.068,1.788,1.987,���k��,6.0,��
2015/03/02,14:00,1.878,3.412,3.692,3.338,3.448,1.072,1.788,1.987,���k��,7.1,��
2015/03/02,14:10,1.880,3.415,3.698,3.340,3.450,1.073,1.787,1.988,���k��,4.9,��
2015/03/02,14:20,1.882,3.413,3.693,3.337,3.452,1.070,1.787,1.983,���k��,4.8,��
2015/03/02,14:30,1.880,3.413,3.695,3.335,3.457,1.072,1.787,1.985,���k��,5.1,��
2015/03/02,14:40,1.880,3.410,3.695,3.337,3.450,1.073,1.788,1.985,�k��,4.5,��
2015/03/02,14:50,1.880,3.413,3.697,3.333,3.458,1.077,1.788,1.983,�k��,7.7,��
2015/03/02,15:00,1.882,3.413,3.698,3.333,3.452,1.078,1.790,1.980,�k��,3.8,��
2015/03/02,15:10,1.878,3.415,3.698,3.342,3.458,1.078,1.790,1.985,���k��,6.3,��
2015/03/02,15:20,1.878,3.417,3.700,3.338,3.457,1.077,1.788,1.990,��,4.9,��
2015/03/02,15:30,1.878,3.417,3.702,3.342,3.455,1.077,1.792,1.987,��,5.1,��
2015/03/02,15:40,1.877,3.417,3.700,3.338,3.457,1.078,1.792,1.987,��,5.3,��
2015/03/02,15:50,1.878,3.415,3.697,3.338,3.460,1.082,1.785,1.985,��,4.8,��
2015/03/02,16:00,1.883,3.418,3.693,3.342,3.460,1.085,1.790,1.988,��,7.2,��
2015/03/02,16:10,1.880,3.418,3.700,3.342,3.457,1.083,1.788,1.988,��,8.5,��
2015/03/02,16:20,1.880,3.420,3.698,3.345,3.460,1.083,1.790,1.988,���쐼,8.6,��
2015/03/02,16:30,1.880,3.417,3.703,3.345,3.463,1.087,1.790,1.992,���쐼,10.5,��
2015/03/02,16:40,1.880,3.420,3.702,3.347,3.460,1.088,1.793,1.988,��,9.3,��
2015/03/02,16:50,1.880,3.420,3.702,3.342,3.460,1.087,1.792,1.988,���쐼,9.1,��
2015/03/02,17:00,1.880,3.417,3.700,3.340,3.462,1.085,1.788,1.988,��,11.3,��
2015/03/02,17:10,1.880,3.415,3.700,3.342,3.458,1.087,1.790,1.990,��,9.4,��
2015/03/02,17:20,1.882,3.418,3.698,3.342,3.462,1.085,1.790,1.988,��,9.7,��
2015/03/02,17:30,1.880,3.417,3.695,3.342,3.463,1.083,1.790,1.987,��,6.7,��
2015/03/02,17:40,1.882,3.420,3.698,3.342,3.463,1.082,1.788,1.992,��,8.8,��
2015/03/02,17:50,1.883,3.415,3.698,3.342,3.458,1.083,1.788,1.992,��,8.8,��
2015/03/02,18:00,1.880,3.417,3.698,3.343,3.463,1.083,1.788,1.987,��,9.1,��
2015/03/02,18:10,1.880,3.413,3.698,3.343,3.465,1.085,1.790,1.990,��,7.1,��
2015/03/02,18:20,1.882,3.418,3.697,3.345,3.463,1.085,1.790,1.988,��,6.4,��
2015/03/02,18:30,1.880,3.420,3.700,3.345,3.462,1.088,1.790,1.992,��,5.6,��
2015/03/02,18:40,1.882,3.423,3.700,3.340,3.460,1.087,1.788,1.985,��,5.1,��
2015/03/02,18:50,1.882,3.417,3.698,3.345,3.467,1.085,1.792,1.988,��,7.2,��
2015/03/02,19:00,1.877,3.418,3.698,3.340,3.465,1.085,1.788,1.985,��,6.9,��
2015/03/02,19:10,1.878,3.417,3.695,3.345,3.468,1.085,1.790,1.985,��,6.1,��
2015/03/02,19:20,1.878,3.418,3.700,3.343,3.467,1.088,1.788,1.988,��,10.4,��
2015/03/02,19:30,1.878,3.418,3.697,3.347,3.468,1.087,1.788,1.988,��,7.7,��
2015/03/02,19:40,1.878,3.420,3.698,3.342,3.465,1.083,1.787,1.988,��,10.2,��
2015/03/02,19:50,1.877,3.417,3.702,3.345,3.467,1.088,1.788,1.990,���k��,10.2,��
2015/03/02,20:00,1.878,3.418,3.700,3.345,3.467,1.087,1.790,1.990,���k��,9.1,��
2015/03/02,20:10,1.880,3.417,3.698,3.350,3.462,1.087,1.787,1.992,���k��,9.3,��
2015/03/02,20:20,1.878,3.422,3.700,3.350,3.463,1.085,1.785,1.987,���k��,9.3,��
2015/03/02,20:30,1.880,3.420,3.703,3.350,3.465,1.088,1.787,1.988,���k��,8.8,��
2015/03/02,20:40,1.878,3.422,3.702,3.343,3.463,1.085,1.788,1.988,���k��,8.2,��
2015/03/02,20:50,1.877,3.417,3.700,3.347,3.467,1.085,1.787,1.987,���k��,7.2,��
2015/03/02,21:00,1.878,3.417,3.703,3.352,3.467,1.087,1.787,1.987,���k��,7.9,��
2015/03/02,21:10,1.878,3.418,3.702,3.347,3.467,1.087,1.788,1.987,�k��,6.1,��
2015/03/02,21:20,1.877,3.417,3.700,3.348,3.465,1.087,1.788,1.990,�k��,8.5,��
2015/03/02,21:30,1.877,3.420,3.703,3.350,3.467,1.087,1.788,1.988,���k��,7.5,��
2015/03/02,21:40,1.875,3.415,3.702,3.350,3.467,1.088,1.788,1.985,���k��,6.0,��
2015/03/02,21:50,1.877,3.417,3.702,3.350,3.468,1.088,1.790,1.988,���k��,7.1,��
2015/03/02,22:00,1.877,3.417,3.702,3.347,3.472,1.088,1.788,1.987,�k��,3.2,��
2015/03/02,22:10,1.877,3.417,3.702,3.350,3.465,1.085,1.787,1.988,�k��,4.3,��
2015/03/02,22:20,1.878,3.413,3.702,3.347,3.468,1.088,1.787,1.987,�k��,2.6,��
2015/03/02,22:30,1.873,3.415,3.698,3.348,3.468,1.087,1.787,1.992,�k��,4.1,��
2015/03/02,22:40,1.880,3.413,3.703,3.345,3.465,1.088,1.787,1.990,�k��,2.9,��
2015/03/02,22:50,1.878,3.415,3.702,3.345,3.462,1.088,1.790,1.992,�k��,2.7,��
2015/03/02,23:00,1.877,3.415,3.698,3.345,3.468,1.085,1.790,1.988,���k��,3.9,��
2015/03/02,23:10,1.873,3.415,3.698,3.345,3.468,1.090,1.787,1.990,��,4.9,��
2015/03/02,23:20,1.877,3.415,3.698,3.348,3.470,1.087,1.787,1.990,���k��,7.1,��
2015/03/02,23:30,1.877,3.413,3.697,3.352,3.470,1.087,1.788,1.987,���k��,7.7,��
2015/03/02,23:40,1.880,3.418,3.707,3.347,3.472,1.087,1.787,1.990,���k��,7.2,��
2015/03/02,23:50,1.878,3.415,3.702,3.350,3.467,1.087,1.788,1.987,���k��,8.0,��
